Weather in Tulcan

Ecuador     0°48′46″N   77°42′57″W
temp.,
°C
wind,
m/s
gust,
m/s
humid.,
%
clouds,
%
prec.,
mm/h
press.,
hPa
HPBL,
m
21 january, thu
thu2101:00+5sse019699 0.0 101463
04:00+5sw0191100 0.0 101322
07:00+7ese1183100 0.0 101439
10:00+11se237499 0.1 1015619
13:00+13sse336899 0.5 1011947
16:00+13se337775 2.3 1009717
19:00+8se239767 4.4 1011149
22:00+8se129898 0.8 1014130
22 january, fri
fri2201:00+8sse119899 1.4 1013130
04:00+7sse1198100 0.4 101295
07:00+7se119797 2.8 101483
10:00+9ese2188100 10.2 1015319
13:00+8sw1285100 18.9 1014304
16:00+8sse0192100 1.2 1012162
19:00+7ese1198100 2.3 101492
22:00+8se1299100 0.6 1015128
23 january, sat
sat2301:00+8se0198100 0.8 101493
04:00+8e1199100 2.1 1012112
07:00+8e2398100 2.8 1014156
10:00+9ese2291100 0.4 1015333
13:00+10ese228497 1.5 1013523
16:00+9se339498 1.1 1011304
19:00+8se229899 1.6 1013171
22:00+7ese1299100 0.1 1015105
24 january, sun
sun2401:00+7e119898 0.3 101492
04:00+7ne1198100 0.1 101284
07:00+7se1295100 0.1 1014179
10:00+11ese338191 0.3 1014657
13:00+12se447785 1.3 1012852
16:00+11se338184 1.4 1010656
19:00+7se229791 1.9 1012108
22:00+7ese129993 0.3 101478
25 january, mon
mon2501:00+8se229896 0.6 1012146
04:00+8se1298100 1.6 1011153
07:00+7ese129899 1.8 1013129
10:00+9ese2295100 0.3 1014257
13:00+10ese448895 0.8 1011438
16:00+10se339090 0.5 1009363
19:00+8ese229895 0.7 1011151
22:00+7se119891 0.0 101370